Greensboro, NC

11:56 PM EST on December 13, 2017 (GMT -0500)
Piedmont Triad International

Weather History for KGSO - October, 2014

Change the Weather History Date:

Friday, October 31, 2014

  Actual Average Record
Temperature  
Mean Temperature 49 °F 55 °F  
Max Temperature 57 °F 66 °F 85 °F (1961)
Min Temperature 40 °F 44 °F 27 °F (1917)
Degree Days  
Heating Degree Days 16 10  
Month to date heating degree days 151 202  
Since 1 July heating degree days 168 233  
Cooling Degree Days 0 0  
Month to date cooling degree days 47 33  
Year to date cooling degree days 1499 1480  
Moisture  
Dew Point 40 °F    
Average Humidity 76    
Maximum Humidity 93    
Minimum Humidity 59    
Precipitation  
Precipitation 0.30 in 0.11 in 1.26 in (1988)
Month to date precipitation 2.01 3.13  
Year to date precipitation 30.82 36.11  
Sea Level Pressure  
Sea Level Pressure 29.89 in    
Wind  
Wind Speed 5 mph (NNE)    
Max Wind Speed 12 mph    
Max Gust Speed 16 mph    
Visibility 9 miles    
Events Rain    
T = Trace of Precipitation, MM = Missing Value Source: NWS Daily Summary

Daily Weather History Graph

Daily Weather History Graph

Search for Another Location

Airport or City:

Trip Planner

Search our weather history database for the weather conditions in past years. The results will help you decide how hot, cold, wet, or windy it might be!

Date:

Astronomy

Oct. 31, 2014 Rise Set
Actual Time 7:41 AM EDT 6:24 PM EDT
Civil Twilight 7:14 AM EDT 6:51 PM EDT
Nautical Twilight 6:44 AM EDT 7:21 PM EDT
Astronomical Twilight 6:14 AM EDT 7:51 PM EDT
Moon 2:26 PM EDT (10/31) 12:41 AM EDT (10/31)
Length of Visible Light 11h 36m
Length of Day
10h 43m
First Quarter, 56% of the Moon is Illuminated
Oct 31
First Quarter
Nov 6
Full
Nov 14
Last Quarter
Nov 22
New
Nov 29
First Quarter

Hourly Weather History & Observations

Time (EDT) Temp. Windchill Dew Point Humidity Pressure Visibility Wind Dir Wind Speed Gust Speed Precip Events Conditions
12:54 AM 46.0 °F 42.5 °F 39.0 °F 76% 29.99 in 10.0 mi NNE 6.9 mph - N/A   Partly Cloudy
1:54 AM 45.0 °F 41.8 °F 39.0 °F 80% 29.99 in 10.0 mi NNE 5.8 mph - N/A   Partly Cloudy
2:54 AM 44.1 °F 41.5 °F 39.0 °F 82% 29.99 in 10.0 mi North 4.6 mph - N/A   Partly Cloudy
3:54 AM 43.0 °F 38.8 °F 37.9 °F 82% 29.98 in 10.0 mi NNE 6.9 mph - N/A   Clear
4:54 AM 41.0 °F 38.0 °F 37.0 °F 86% 29.97 in 10.0 mi NNE 4.6 mph - N/A   Scattered Clouds
5:54 AM 41.0 °F 38.0 °F 36.0 °F 82% 29.97 in 10.0 mi NNE 4.6 mph - N/A   Scattered Clouds
6:37 AM 41.0 °F 36.4 °F 35.6 °F 81% 29.96 in 10.0 mi NNE 6.9 mph - N/A   Mostly Cloudy
6:54 AM 41.0 °F 36.4 °F 36.0 °F 82% 29.96 in 10.0 mi NNE 6.9 mph - N/A   Mostly Cloudy
7:20 AM 41.0 °F 39.0 °F 35.6 °F 81% 29.96 in 10.0 mi North 3.5 mph - N/A   Mostly Cloudy
7:54 AM 41.0 °F 38.0 °F 35.1 °F 79% 29.96 in 10.0 mi North 4.6 mph - N/A   Scattered Clouds
8:41 AM 42.8 °F 41.1 °F 35.6 °F 76% 29.97 in 10.0 mi North 3.5 mph - N/A   Mostly Cloudy
8:54 AM 43.0 °F 39.5 °F 35.1 °F 74% 29.97 in 10.0 mi NNE 5.8 mph - N/A   Mostly Cloudy
9:54 AM 46.0 °F 44.8 °F 36.0 °F 68% 29.97 in 10.0 mi NNE 3.5 mph - N/A   Overcast
10:54 AM 48.9 °F - 37.9 °F 66% 29.95 in 10.0 mi ENE 6.9 mph - N/A   Overcast
11:54 AM 51.1 °F - 39.0 °F 63% 29.93 in 10.0 mi ENE 8.1 mph - N/A   Mostly Cloudy
12:54 PM 54.0 °F - 39.9 °F 59% 29.89 in 10.0 mi Variable 3.5 mph - N/A   Mostly Cloudy
1:20 PM 53.6 °F - 41.0 °F 62% 29.88 in 10.0 mi Calm Calm - N/A   Overcast
1:54 PM 55.0 °F - 41.0 °F 59% 29.86 in 10.0 mi North 3.5 mph - N/A   Overcast
2:54 PM 55.9 °F - 41.0 °F 57% 29.84 in 10.0 mi NNW 3.5 mph - N/A   Overcast
3:54 PM 55.9 °F - 41.0 °F 57% 29.82 in 10.0 mi Calm Calm - N/A   Mostly Cloudy
4:54 PM 55.9 °F - 41.0 °F 57% 29.81 in 10.0 mi Calm Calm - N/A   Mostly Cloudy
5:54 PM 55.0 °F - 42.1 °F 62% 29.81 in 10.0 mi Calm Calm - N/A   Overcast
6:54 PM 53.1 °F - 42.1 °F 66% 29.81 in 10.0 mi ENE 3.5 mph - N/A   Mostly Cloudy
7:54 PM 52.0 °F - 43.0 °F 71% 29.80 in 10.0 mi ENE 4.6 mph - N/A   Overcast
8:54 PM 52.0 °F - 44.1 °F 74% 29.78 in 10.0 mi Calm Calm - N/A   Overcast
9:54 PM 48.0 °F - 46.0 °F 93% 29.80 in 3.0 mi NNW 9.2 mph - 0.03 in Rain Rain
10:54 PM 46.9 °F - 45.0 °F 93% 29.79 in 4.0 mi North 6.9 mph - 0.07 in Rain Light Rain
11:45 PM 46.4 °F 45.2 °F 44.6 °F 93% 29.79 in 3.0 mi West 3.5 mph - 0.05 in Rain Rain
11:54 PM 46.9 °F - 45.0 °F 93% 29.78 in 3.0 mi WNW 4.6 mph - 0.07 in Rain Rain